Temperature
22 21 20 21 27 30 30 30 30 30 30 29 28 28 29 28 28 26 22 22 21 20 19 20 20 20 20 20 19 19 19 19 19 19 19 19 19 18 18 18 18 18 18 18 18 18 18 18 18
21 21 21 25 30 30 29 30 30 30 29 28 28 28 28 27 24 22 21 21 21 20 20 20 20 20 20 20 19 19 19 19 19 19 19 19 18 18 18 18 18 18 18 18 18 18 18 18 17
21 21 25 30 30 30 30 30 30 30 28 28 28 28 27 26 23 22 21 21 21 20 19 20 20 20 20 20 19 20 19 19 19 19 19 19 18 18 18 18 18 18 18 18 18 18 18 18 17
22 24 27 30 30 30 30 31 30 30 29 28 28 28 26 23 22 22 21 21 21 20 20 20 20 20 20 19 19 19 19 19 19 19 19 18 18 18 18 18 18 18 18 18 18 18 18 17 17
23 27 30 31 31 31 31 31 30 30 30 29 28 28 26 22 22 21 21 21 21 20 20 19 20 20 19 19 19 19 19 19 19 19 18 18 18 18 18 18 18 18 18 18 18 17 17 17 17
27 30 31 30 30 31 32 31 30 31 30 29 28 28 25 21 22 21 21 21 21 21 20 19 20 19 19 19 19 19 19 19 19 18 18 18 18 18 18 18 18 18 18 17 17 17 17 17 17
28 30 30 31 30 31 31 31 31 31 31 29 28 28 24 22 21 21 21 21 21 21 20 19 19 19 19 19 19 19 19 18 18 18 18 18 18 18 18 18 18 18 18 17 17 17 17 17 17
27 30 31 31 30 31 31 31 30 30 30 28 28 28 26 22 21 21 20 20 20 20 20 19 18 18 18 18 19 19 18 18 18 18 18 18 18 18 18 17 18 18 18 17 17 17 17 17 17
26 30 31 31 30 31 31 31 30 29 29 28 27 27 25 22 21 20 20 19 19 19 19 19 19 18 18 18 18 18 18 18 18 18 18 18 17 17 17 17 18 18 18 17 17 17 17 17 17
28 30 31 31 31 31 31 31 31 30 30 29 26 24 22 21 20 20 20 19 19 19 19 19 19 18 18 18 17 17 17 18 18 17 17 17 17 17 17 17 18 18 17 17 17 17 17 17 17
29 30 31 31 30 30 31 31 31 31 31 30 28 24 22 21 20 20 20 20 20 19 19 19 18 18 18 18 18 18 17 18 17 17 17 17 17 17 17 17 17 17 17 17 17 17 17 17 17
29 30 30 30 30 30 31 31 31 31 31 29 28 25 22 21 21 21 20 20 20 19 19 18 18 18 18 18 18 18 18 18 17 17 17 17 17 17 17 17 17 17 17 17 17 17 17 17 17
29 30 30 30 30 31 30 31 31 30 29 28 27 24 23 22 21 21 20 20 19 19 19 18 18 18 18 18 18 18 18 18 17 17 17 17 17 17 17 17 17 17 17 17 17 17 17 17 17
30 30 30 30 31 31 31 31 31 30 28 27 26 25 23 22 21 20 20 19 19 19 19 18 18 18 18 18 18 18 18 18 17 17 17 17 17 17 17 17 17 17 17 17 17 17 17 17 17
29 30 31 31 31 31 31 32 31 29 28 27 26 25 23 22 21 20 20 19 19 19 19 19 19 18 18 18 18 18 17 17 17 17 17 17 17 17 17 17 17 17 17 17 17 17 17 17 17
30 30 30 31 31 31 31 31 31 28 28 28 26 25 23 22 21 20 20 19 19 19 19 19 19 18 18 18 18 17 17 17 17 17 17 17 17 17 17 17 17 17 17 17 17 17 17 17 17
30 30 30 31 31 31 31 31 31 29 28 28 26 25 23 21 21 20 19 19 19 19 19 19 19 19 18 18 18 17 17 17 17 17 17 17 17 17 17 17 17 17 17 17 17 17 17 17 17
30 30 30 30 31 31 31 31 31 29 28 28 26 25 23 22 21 20 19 19 19 19 19 19 19 19 18 18 18 17 17 17 17 17 17 17 17 17 17 17 17 17 17 17 17 17 17 17 17
29 29 29 30 31 30 31 31 31 29 28 28 26 25 24 22 21 20 19 19 18 19 19 19 19 19 18 18 17 17 17 17 17 17 17 17 17 17 17 17 17 17 17 17 17 17 17 17 17
28 28 29 30 30 30 30 31 31 29 28 27 27 25 24 23 21 20 19 19 18 18 18 18 18 18 18 18 18 17 17 17 17 17 17 17 17 17 17 17 17 17 17 17 16 17 17 17 17
28 29 29 29 30 30 30 30 30 30 28 27 26 25 24 23 22 20 19 19 19 18 18 18 18 18 18 18 17 17 17 17 17 17 17 17 17 17 17 17 17 17 17 17 17 17 17 17 17
28 29 29 29 29 30 29 29 30 30 29 28 27 25 24 23 22 21 20 19 19 18 18 18 18 18 18 18 17 17 17 17 17 17 17 17 17 17 17 17 17 17 17 17 17 17 17 16 17
29 29 29 29 29 29 30 29 30 30 30 29 28 26 25 23 22 21 20 19 19 19 18 18 18 18 18 17 17 17 17 17 17 17 17 17 17 17 17 17 17 17 17 17 16 16 16 17 17
29 28 28 29 29 28 29 29 29 30 29 29 28 26 24 23 22 21 20 19 19 19 18 18 18 18 18 17 17 17 17 17 17 17 17 17 17 17 17 17 17 17 17 16 16 16 16 16 16
28 28 28 28 28 28 29 28 29 30 29 28 27 26 24 23 22 21 20 19 19 19 18 18 18 18 18 17 17 17 17 17 17 17 17 17 17 17 17 17 17 17 16 16 16 16 16 16 16
28 29 28 28 28 29 28 28 30 29 28 27 26 25 24 23 22 21 20 19 19 18 18 18 18 18 17 17 17 17 17 17 17 17 17 17 17 17 17 17 17 17 16 16 16 16 16 16 16
28 29 30 29 29 28 29 29 30 28 28 27 26 25 24 23 22 21 20 19 19 18 18 18 17 17 17 17 17 17 17 17 17 17 17 17 17 16 16 17 16 16 16 16 16 16 16 16 16
30 30 29 28 27 27 28 29 29 29 28 28 27 26 24 23 22 21 20 19 18 18 18 17 17 17 17 17 17 17 17 17 17 16 17 16 16 16 16 16 16 16 16 16 16 16 16 15 16
28 28 28 29 29 28 28 29 30 29 28 28 27 26 24 23 22 21 20 19 18 18 17 17 17 17 17 17 16 16 16 16 16 16 16 16 16 16 16 16 16 16 16 16 16 15 15 15 15
29 29 29 28 27 28 28 29 29 29 28 27 27 25 24 23 21 20 19 18 18 17 17 17 17 16 17 17 16 16 16 16 16 16 16 16 16 16 16 16 16 16 16 16 16 15 15 15 15
Wind_Speed
8 6 4 4 4 4 11 9 7 7 6 5 4 2 3 4 3 4 9 18 20 20 21 21 19 18 17 17 16 16 16 16 15 14 13 13 12 11 11 11 11 11 11 12 12 12 12 12 13
4 3 5 5 1 8 10 7 7 7 6 5 4 2 3 5 6 8 13 18 21 21 21 20 20 18 18 17 16 16 16 15 14 14 13 12 11 11 11 11 11 11 12 12 12 13 13 13 13
4 5 4 3 3 8 9 7 6 5 4 3 3 3 4 5 6 8 13 20 20 19 20 21 21 19 18 17 16 16 15 15 14 13 12 12 11 11 11 11 12 12 12 12 13 13 13 13 13
4 5 5 2 7 7 5 4 3 3 3 2 2 4 5 5 4 9 18 21 20 19 20 22 21 19 18 17 16 16 15 14 13 13 12 11 11 11 11 12 12 12 13 13 13 13 13 12 12
5 5 4 4 6 5 3 2 0 1 1 2 1 4 6 5 8 15 19 20 19 19 19 22 20 19 18 17 16 15 14 14 13 12 11 11 11 11 11 12 12 12 12 12 12 12 12 11 11
4 4 2 5 6 4 3 1 1 2 1 2 2 3 5 7 12 17 19 18 18 18 18 21 20 19 18 17 16 15 14 13 12 12 11 11 11 11 11 11 11 12 12 11 11 11 11 11 11
5 3 2 4 4 4 4 3 2 3 2 3 2 3 7 9 13 16 17 17 17 16 16 19 19 18 17 16 15 15 14 13 12 12 11 11 11 11 11 11 11 11 11 11 10 10 10 10 10
5 4 3 3 2 4 4 3 3 5 3 2 4 3 6 13 15 17 16 15 15 15 15 16 17 17 17 16 15 14 13 13 12 11 11 11 11 11 11 12 11 10 10 10 9 9 9 9 9
5 5 3 2 2 3 5 5 4 3 2 4 4 1 7 19 18 18 16 15 14 14 14 15 15 15 15 15 16 15 14 12 12 12 11 11 10 11 11 11 11 10 9 9 9 8 8 9 10
5 5 1 3 4 6 7 7 5 4 6 5 5 6 14 20 20 20 19 19 18 17 15 13 14 14 14 13 15 13 13 13 11 11 11 8 7 7 9 12 10 9 9 9 8 7 8 7 9
5 4 2 3 5 8 9 7 5 6 6 5 7 12 18 20 19 19 19 19 18 17 16 14 14 13 12 10 12 10 9 10 10 10 9 7 7 7 8 9 10 9 9 8 9 8 6 5 4
6 6 6 7 8 9 10 9 7 7 6 3 4 14 19 20 20 19 18 18 17 17 16 15 13 12 11 10 9 9 8 8 9 10 9 8 6 5 6 5 7 7 6 5 5 4 4 3 4
9 7 8 9 10 9 9 9 8 7 4 1 6 15 18 18 18 17 16 16 16 16 15 14 13 13 11 9 8 9 8 8 9 9 9 7 6 5 5 5 4 5 5 6 4 4 4 3 4
6 9 10 10 8 5 8 8 6 3 1 3 8 13 15 16 17 16 16 16 16 16 15 14 14 13 11 9 8 7 8 8 9 9 9 8 7 6 5 6 5 4 4 3 3 4 4 3 3
8 10 10 6 5 4 8 8 3 2 1 4 7 10 12 14 16 17 17 17 17 16 16 15 14 13 12 11 10 8 8 9 8 8 9 9 8 7 6 5 5 5 5 4 4 4 4 4 4
9 10 9 4 3 3 8 6 1 1 2 4 6 8 10 12 14 14 15 15 15 16 16 16 14 15 14 12 10 8 9 8 8 8 9 9 8 7 6 5 5 5 5 5 4 4 4 3 3
10 10 8 4 2 5 7 7 2 1 3 4 6 8 9 11 12 13 14 14 15 16 16 17 15 15 15 13 10 9 8 8 8 8 8 9 9 9 8 6 4 6 5 5 5 5 3 3 3
7 8 7 6 3 8 8 7 3 2 3 4 5 8 9 10 12 12 13 14 14 15 16 17 16 16 14 11 9 8 8 8 8 8 8 9 9 9 8 7 6 7 5 5 4 3 3 3 3
7 9 9 7 5 8 8 7 4 2 4 5 5 7 8 9 9 11 12 13 14 14 16 16 16 15 13 10 10 10 10 8 8 8 9 10 10 10 9 7 6 6 6 5 6 5 6 5 4
10 11 10 7 4 7 8 8 3 2 3 4 5 6 7 8 9 10 12 13 14 15 16 16 16 15 14 11 9 8 8 8 8 8 9 10 10 10 10 8 7 7 5 6 6 6 5 4 5
13 12 9 7 7 7 8 9 4 3 3 3 4 5 6 8 9 10 12 13 14 15 16 15 15 15 15 13 9 8 6 6 8 8 8 9 11 11 9 8 8 6 7 7 7 7 7 5 5
12 9 9 8 9 6 4 9 4 2 4 4 4 5 6 7 8 9 11 12 13 14 14 14 14 14 14 14 12 13 11 11 11 9 8 8 9 10 10 9 8 7 7 6 8 8 6 6 6
9 5 7 8 9 10 8 9 5 2 4 3 4 4 5 6 7 8 10 11 12 12 12 13 13 13 14 14 14 14 12 11 9 9 9 8 8 9 10 9 7 7 7 7 7 6 7 7 7
7 6 6 8 9 11 7 8 6 2 2 1 3 4 4 6 6 7 8 9 10 10 10 11 12 13 13 14 14 15 15 13 12 11 10 9 7 8 9 9 8 8 7 7 8 7 8 7 6
11 10 8 9 9 8 3 6 5 2 1 1 2 3 4 6 7 8 9 9 9 10 10 11 12 13 13 14 14 14 14 14 13 12 11 10 8 8 9 9 8 8 7 8 7 7 7 7 7
14 15 10 7 7 5 5 6 2 1 1 1 2 3 5 7 7 8 8 8 8 9 9 10 10 11 12 13 13 12 13 11 10 11 10 9 7 8 8 9 8 9 9 9 7 7 7 6 7
13 14 13 10 9 7 5 4 3 4 4 4 4 5 6 7 7 7 7 7 7 7 8 8 9 9 10 11 11 10 11 10 10 10 10 8 7 7 8 9 9 9 9 8 8 7 7 6 7
12 11 9 10 9 9 7 7 3 4 5 6 6 6 6 7 7 7 7 6 6 6 6 7 7 8 8 9 10 9 10 10 9 9 9 7 7 7 8 9 9 9 8 8 8 7 7 6 6
12 12 10 10 9 8 6 2 2 3 3 5 6 6 6 7 7 7 6 6 6 6 6 6 7 7 7 8 9 9 9 9 9 8 7 7 7 8 8 8 8 8 8 8 8 8 7 7 6
13 14 13 11 9 9 9 2 6 4 4 4 5 6 6 7 7 7 7 7 6 6 6 7 7 7 7 7 8 8 8 8 7 7 7 7 7 7 7 7 7 7 7 7 8 8 7 6 6
Wind_Direction
202 211 238 248 236 97 74 71 65 67 68 72 102 90 38 35 14 67 124 146 145 146 145 150 149 145 141 138 136 135 134 131 129 128 126 124 122 120 119 117 115 112 109 109 109 108 109 110 113
200 223 245 248 238 88 79 69 65 57 74 100 111 97 64 64 56 106 138 145 149 147 148 152 148 147 144 141 139 137 136 134 132 130 128 126 123 120 118 117 115 113 111 109 108 108 108 109 111
213 242 269 253 77 72 74 68 70 85 113 121 105 65 47 64 100 130 143 150 151 148 148 146 151 150 147 145 143 140 138 137 135 132 130 127 124 120 117 115 113 112 112 111 109 107 106 107 108
239 239 241 226 93 75 57 59 79 123 137 125 121 99 86 67 112 137 146 154 152 149 151 147 154 151 149 148 146 143 142 140 136 134 132 128 125 122 119 114 113 112 111 110 109 108 107 107 108
249 262 223 124 91 77 52 23 310 211 130 142 168 105 101 94 119 139 152 156 154 154 151 149 155 152 152 151 149 147 145 142 138 135 133 130 127 122 118 116 115 114 113 112 111 110 109 109 110
253 250 198 109 94 77 55 10 243 278 232 168 180 131 104 123 138 149 156 159 157 156 151 147 155 155 156 155 153 150 148 145 141 139 135 131 126 124 121 120 118 117 116 114 111 109 108 110 112
278 267 118 100 96 88 44 11 308 298 264 216 196 149 129 144 147 154 157 159 158 158 152 154 160 160 160 158 156 155 151 147 144 141 136 133 130 128 127 125 122 120 120 118 114 110 109 108 113
282 260 175 130 93 71 34 347 329 305 309 148 196 201 153 157 153 154 157 160 160 163 160 160 165 163 165 163 161 159 154 150 147 145 141 137 137 134 134 138 126 125 124 121 119 115 114 114 117
263 243 173 94 34 20 359 333 326 289 230 190 202 234 127 146 153 155 159 163 166 169 169 169 166 165 169 166 159 164 159 156 156 155 149 159 157 146 153 126 130 133 130 125 122 123 127 134 130
244 243 100 21 342 330 327 316 305 256 234 209 174 137 136 150 159 164 168 171 173 175 176 173 170 167 171 166 161 168 170 164 176 160 161 165 145 145 132 126 139 139 137 136 129 134 160 186 141
241 263 329 310 317 317 310 306 283 269 268 240 204 169 158 162 169 173 175 178 177 177 177 177 174 172 172 168 166 169 170 166 173 162 162 155 155 151 145 148 151 154 163 159 148 176 167 143 115
247 261 282 294 308 302 303 302 289 272 293 338 198 167 167 172 177 179 179 179 178 179 181 179 173 171 175 175 171 170 172 172 171 163 171 164 166 162 149 157 158 166 165 153 166 160 140 128 132
243 267 284 289 293 297 292 284 285 280 294 278 158 166 175 179 181 182 180 178 179 180 180 179 175 173 175 176 180 175 175 176 170 166 173 176 173 171 161 161 169 177 158 169 177 167 150 158 159
263 274 279 283 289 291 292 283 261 285 319 189 169 175 181 182 182 180 181 182 181 181 179 175 178 175 175 178 183 178 179 180 177 176 175 185 182 172 176 176 181 181 178 173 179 167 169 179 161
267 271 267 257 279 299 297 260 237 335 261 194 179 179 181 185 184 186 186 185 183 181 179 176 176 176 177 183 189 186 186 183 187 178 177 187 191 178 188 185 189 184 173 171 191 179 180 183 179
247 250 244 213 284 302 289 278 68 6 232 200 180 178 182 185 190 190 188 187 184 182 180 180 178 179 183 187 191 190 190 186 190 184 184 190 194 189 197 196 195 178 190 192 187 202 190 181 186
231 237 241 228 259 306 289 289 329 293 226 201 182 179 182 184 192 192 190 188 187 184 182 182 181 182 187 188 188 190 187 191 193 193 194 190 197 196 204 204 188 193 200 201 212 185 202 187 189
233 246 247 257 288 303 286 288 299 255 228 209 187 184 185 190 194 192 192 190 187 185 185 185 183 185 187 186 185 186 192 193 198 201 201 197 201 201 207 204 196 208 204 203 216 189 201 216 208
266 264 263 271 298 296 284 291 293 242 223 215 204 192 193 194 187 186 190 188 185 184 186 187 188 187 184 185 188 189 193 195 200 204 199 202 208 203 209 215 194 212 212 211 208 209 195 210 202
245 254 257 261 280 291 290 287 278 239 237 237 221 204 197 189 184 182 186 187 189 187 189 190 191 189 190 190 191 194 191 193 199 204 198 204 210 210 207 212 212 208 208 209 213 216 223 209 207
238 247 257 275 289 256 280 264 230 224 225 218 216 206 194 189 188 185 188 190 191 191 192 193 195 193 193 188 185 184 182 193 198 202 202 206 210 211 217 209 218 212 217 207 210 212 219 223 212
236 240 254 266 271 265 278 286 274 254 236 210 202 197 193 191 190 187 190 191 193 193 191 194 197 197 195 189 190 190 196 201 203 201 198 199 208 211 212 215 214 216 221 209 215 211 222 227 225
241 240 247 257 260 268 251 273 289 241 260 217 190 189 189 187 188 185 187 189 189 189 188 190 195 198 198 196 196 199 204 207 204 200 195 201 204 208 210 211 213 215 222 217 225 208 227 226 233
216 217 231 243 249 251 254 269 283 320 316 263 185 183 182 179 176 172 171 173 177 182 186 188 192 196 197 199 201 203 206 204 201 200 198 202 203 208 208 210 211 215 220 213 218 219 220 235 238
208 220 223 225 226 240 185 256 280 348 329 291 220 187 179 170 168 164 165 169 175 180 184 190 195 198 198 201 205 208 208 207 205 203 203 204 204 208 204 208 205 212 215 214 215 216 228 222 222
211 223 235 245 243 225 183 249 279 115 168 212 190 160 160 163 161 159 161 165 171 178 184 191 196 200 199 202 207 208 206 207 208 206 207 206 210 211 201 203 204 209 212 211 209 218 217 218 220
214 225 239 254 265 268 242 240 238 184 195 186 165 153 155 156 156 155 156 160 165 176 184 190 191 193 195 200 200 200 203 206 205 200 205 207 208 207 200 199 204 210 211 210 207 219 219 215 219
232 223 222 235 244 249 241 241 243 185 186 178 170 162 153 155 155 156 158 157 160 165 171 181 183 187 192 193 196 194 196 197 199 201 201 202 204 205 199 202 204 203 205 206 208 213 211 214 219
198 212 222 231 246 257 253 227 111 153 168 173 168 161 159 162 158 156 155 152 153 158 164 172 179 183 188 189 191 190 190 192 192 195 195 194 198 193 193 196 197 199 201 201 202 213 205 212 211
209 214 213 225 228 244 268 240 107 132 148 156 149 150 151 154 154 153 152 153 157 160 162 169 176 181 184 184 182 181 182 183 183 185 184 183 184 186 186 187 191 195 196 195 198 205 204 207 210
Height
1507 1507 1507 1508 1501 1493 1497 1494 1491 1491 1492 1496 1498 1499 1498 1499 1503 1511 1515 1515 1518 1521 1524 1526 1529 1532 1535 1537 1539 1540 1542 1544 1545 1546 1547 1548 1549 1550 1550 1551 1552 1553 1553 1554 1554 1555 1556 1557 1558
1509 1509 1510 1506 1494 1500 1501 1493 1493 1494 1497 1499 1500 1501 1500 1503 1508 1511 1513 1516 1519 1523 1525 1527 1530 1533 1536 1538 1540 1542 1543 1545 1546 1547 1548 1549 1550 1551 1552 1553 1553 1554 1555 1555 1556 1557 1557 1559 1560
1510 1510 1510 1497 1493 1498 1499 1493 1494 1497 1499 1500 1501 1502 1503 1507 1511 1513 1515 1517 1521 1525 1527 1528 1531 1534 1537 1539 1541 1543 1544 1546 1547 1549 1550 1551 1552 1553 1554 1554 1555 1556 1557 1557 1558 1559 1560 1561 1562
1512 1511 1506 1495 1496 1495 1494 1493 1495 1497 1499 1501 1501 1503 1507 1511 1512 1514 1515 1519 1523 1526 1529 1529 1532 1535 1538 1540 1542 1544 1546 1547 1549 1550 1551 1552 1553 1554 1555 1556 1557 1558 1559 1559 1560 1561 1562 1563 1564
1512 1507 1496 1494 1495 1493 1493 1495 1496 1495 1497 1500 1501 1502 1508 1512 1512 1514 1516 1521 1524 1528 1531 1531 1533 1536 1539 1541 1543 1545 1547 1549 1550 1551 1553 1554 1555 1556 1557 1558 1559 1560 1561 1561 1562 1563 1564 1565 1566
1510 1502 1496 1498 1496 1494 1493 1495 1495 1495 1497 1500 1502 1503 1509 1512 1513 1515 1518 1522 1526 1529 1532 1532 1534 1537 1540 1542 1545 1546 1548 1550 1551 1553 1554 1555 1557 1558 1559 1560 1561 1562 1563 1564 1565 1566 1566 1567 1568
1509 1498 1497 1496 1497 1495 1494 1495 1494 1494 1495 1499 1502 1503 1509 1512 1514 1516 1520 1523 1527 1530 1533 1533 1536 1538 1540 1543 1545 1547 1549 1551 1552 1554 1555 1557 1558 1559 1560 1561 1562 1563 1565 1566 1567 1568 1568 1569 1570
1509 1500 1496 1495 1497 1496 1494 1495 1495 1495 1495 1500 1502 1502 1506 1510 1512 1516 1520 1524 1527 1530 1533 1534 1537 1539 1541 1544 1546 1548 1550 1552 1553 1555 1557 1558 1559 1560 1562 1563 1564 1565 1566 1567 1568 1569 1570 1571 1572
1510 1501 1497 1495 1498 1495 1494 1494 1495 1496 1497 1499 1501 1502 1504 1507 1511 1515 1519 1523 1526 1529 1532 1535 1537 1539 1543 1545 1546 1549 1551 1552 1554 1556 1557 1559 1562 1563 1564 1564 1565 1567 1568 1569 1570 1571 1572 1573 1573
1507 1498 1496 1496 1497 1496 1495 1494 1494 1494 1494 1497 1501 1503 1504 1505 1509 1513 1516 1520 1523 1527 1530 1533 1537 1539 1543 1546 1547 1550 1552 1553 1556 1558 1559 1561 1562 1564 1565 1565 1566 1568 1569 1570 1571 1572 1573 1575 1576
1504 1498 1497 1497 1497 1497 1494 1492 1492 1491 1489 1492 1497 1501 1503 1505 1508 1511 1514 1518 1522 1525 1529 1532 1535 1538 1542 1545 1547 1550 1552 1554 1556 1558 1559 1561 1563 1565 1566 1567 1568 1569 1570 1572 1573 1574 1576 1577 1577
1503 1499 1500 1498 1497 1496 1494 1491 1490 1490 1490 1493 1495 1498 1501 1504 1506 1509 1513 1517 1521 1524 1527 1531 1533 1536 1540 1544 1547 1549 1551 1554 1556 1557 1559 1561 1563 1565 1567 1567 1569 1571 1572 1573 1575 1575 1576 1577 1578
1501 1499 1498 1496 1495 1493 1493 1490 1489 1489 1491 1493 1494 1497 1499 1503 1506 1509 1512 1515 1518 1522 1526 1529 1531 1534 1538 1541 1545 1549 1551 1554 1556 1557 1559 1561 1563 1565 1566 1568 1569 1571 1572 1573 1574 1576 1576 1577 1578
1499 1498 1496 1494 1492 1491 1490 1487 1488 1488 1491 1492 1494 1496 1499 1502 1505 1508 1510 1513 1516 1520 1523 1526 1529 1531 1536 1540 1543 1547 1550 1552 1556 1557 1559 1561 1563 1565 1566 1567 1569 1571 1572 1574 1575 1576 1577 1578 1579
1500 1497 1492 1490 1490 1489 1489 1484 1484 1488 1490 1491 1493 1496 1498 1501 1503 1506 1508 1510 1514 1517 1520 1523 1527 1530 1534 1538 1542 1546 1549 1552 1554 1556 1558 1559 1562 1564 1566 1568 1569 1571 1572 1573 1574 1575 1577 1578 1579
1496 1494 1492 1487 1488 1488 1489 1486 1484 1488 1489 1490 1492 1495 1497 1500 1502 1505 1507 1509 1512 1515 1518 1521 1525 1529 1533 1537 1540 1544 1547 1550 1553 1555 1557 1559 1561 1562 1564 1567 1569 1570 1572 1573 1574 1576 1577 1578 1579
1492 1492 1490 1487 1487 1486 1485 1484 1482 1486 1487 1488 1491 1494 1496 1499 1501 1503 1505 1507 1510 1513 1516 1519 1523 1526 1531 1535 1538 1542 1545 1548 1551 1554 1556 1557 1559 1561 1564 1566 1568 1569 1571 1573 1574 1575 1576 1577 1578
1493 1490 1490 1489 1485 1485 1483 1480 1480 1484 1485 1486 1489 1492 1495 1497 1499 1501 1503 1505 1507 1510 1513 1517 1520 1524 1528 1532 1536 1539 1542 1545 1548 1551 1554 1556 1558 1560 1563 1565 1566 1568 1570 1571 1573 1574 1575 1576 1577
1491 1492 1492 1487 1484 1485 1481 1479 1478 1481 1483 1485 1487 1490 1493 1495 1498 1499 1500 1502 1505 1507 1510 1514 1517 1521 1525 1529 1532 1536 1539 1543 1546 1549 1552 1554 1557 1559 1561 1564 1565 1567 1569 1570 1572 1573 1574 1575 1576
1493 1494 1490 1485 1483 1484 1481 1478 1476 1479 1481 1483 1485 1488 1491 1493 1496 1497 1498 1500 1502 1505 1508 1511 1515 1518 1522 1526 1529 1533 1537 1540 1544 1547 1549 1552 1554 1557 1560 1561 1563 1565 1567 1568 1570 1571 1573 1574 1575
1492 1491 1488 1488 1483 1480 1482 1478 1474 1476 1479 1482 1484 1486 1489 1491 1493 1495 1496 1498 1500 1503 1505 1509 1512 1515 1519 1523 1527 1531 1534 1537 1541 1543 1546 1549 1552 1555 1557 1559 1561 1563 1565 1567 1568 1570 1571 1573 1574
1490 1484 1486 1487 1488 1482 1484 1488 1474 1472 1475 1478 1481 1484 1487 1489 1491 1493 1494 1496 1498 1501 1504 1507 1510 1513 1516 1520 1524 1527 1530 1534 1537 1541 1544 1547 1550 1552 1555 1557 1559 1561 1563 1564 1566 1568 1570 1571 1572
1483 1482 1484 1485 1485 1486 1481 1487 1475 1470 1472 1473 1478 1482 1485 1487 1489 1491 1492 1494 1497 1499 1502 1504 1507 1510 1513 1516 1520 1524 1527 1531 1535 1538 1541 1544 1547 1549 1552 1554 1556 1558 1560 1562 1564 1566 1567 1569 1570
1481 1485 1485 1483 1481 1493 1483 1488 1481 1467 1471 1472 1476 1480 1483 1486 1488 1490 1492 1493 1496 1498 1500 1503 1505 1507 1511 1513 1517 1520 1523 1527 1531 1534 1538 1541 1544 1546 1549 1551 1553 1555 1558 1559 1561 1563 1565 1566 1568
1481 1488 1494 1495 1493 1488 1479 1485 1477 1468 1470 1473 1475 1479 1482 1485 1487 1489 1491 1493 1494 1496 1498 1500 1502 1505 1508 1511 1514 1517 1520 1524 1527 1531 1534 1537 1540 1543 1545 1548 1550 1552 1555 1557 1559 1560 1562 1563 1565
1477 1479 1490 1496 1491 1481 1481 1482 1469 1467 1472 1474 1476 1478 1481 1484 1486 1488 1490 1492 1494 1495 1497 1499 1501 1503 1505 1508 1511 1514 1517 1521 1524 1528 1531 1534 1537 1540 1542 1544 1547 1549 1552 1554 1556 1558 1559 1560 1562
1474 1474 1466 1476 1480 1485 1476 1471 1465 1466 1470 1472 1475 1478 1480 1483 1485 1488 1490 1491 1493 1494 1496 1498 1499 1501 1503 1506 1508 1511 1514 1517 1521 1524 1527 1530 1533 1536 1538 1540 1543 1546 1548 1551 1553 1555 1556 1558 1559
1465 1466 1472 1478 1491 1492 1481 1475 1469 1464 1466 1470 1473 1476 1480 1483 1485 1487 1489 1491 1492 1494 1495 1497 1498 1500 1502 1504 1506 1508 1511 1514 1517 1520 1523 1526 1529 1532 1534 1537 1540 1542 1545 1547 1549 1552 1553 1555 1557
1470 1471 1469 1470 1472 1483 1486 1475 1457 1461 1464 1467 1471 1475 1479 1482 1484 1487 1489 1490 1492 1493 1494 1496 1497 1498 1500 1502 1504 1506 1509 1512 1514 1517 1519 1523 1525 1528 1531 1534 1536 1539 1542 1544 1546 1549 1551 1552 1554
1458 1461 1466 1476 1478 1474 1475 1471 1458 1461 1464 1468 1471 1476 1479 1481 1484 1486 1488 1490 1491 1492 1494 1495 1496 1498 1499 1501 1502 1504 1507 1509 1512 1514 1517 1520 1522 1525 1528 1531 1534 1537 1539 1541 1544 1546 1548 1550 1551